Theta_e
303 303 303 303 303 302 302 302 302 302 302 302 302 302 302 302 303 303 302 308 302 296 297 301 301 299 299 299 294 299 295 298 296 291 292 293 293 294 294 296 295 294 293 291 293 288 286 304 301 296 302 305 307 305
302 302 302 302 302 302 302 301 301 301 301 301 301 302 302 302 302 303 298 305 306 299 298 305 304 305 303 303 299 297 297 298 299 294 294 295 292 294 294 288 298 291 296 294 295 294 304 307 305 309 309 305 306 305
301 301 301 301 302 302 301 301 301 301 301 300 301 301 301 302 302 302 300 302 301 296 297 298 298 304 308 307 307 295 298 302 300 301 295 293 289 295 290 292 294 297 300 296 296 299 301 304 307 308 309 307 306 308
301 302 301 302 302 301 301 301 300 300 300 300 300 301 302 302 302 301 299 301 301 296 289 294 304 302 307 308 307 306 304 305 303 301 294 291 288 297 293 295 294 296 298 295 296 299 301 302 304 307 306 309 306 309
301 301 301 302 301 301 301 300 300 300 300 300 300 301 301 301 301 302 301 302 302 296 290 292 299 302 306 308 303 305 304 302 298 295 292 289 293 294 296 295 294 297 296 294 294 300 300 302 305 306 307 304 309 307
300 300 300 301 301 300 300 300 299 299 299 299 300 300 300 300 300 297 294 307 306 303 291 288 301 300 303 303 302 301 303 302 299 296 293 295 297 293 289 288 297 299 301 302 300 303 303 305 308 307 307 304 305 303
300 300 300 300 300 299 299 300 300 300 300 299 300 300 301 301 300 293 293 299 301 300 295 290 291 301 304 303 303 302 306 302 303 297 293 294 294 294 290 287 297 300 301 302 303 303 299 303 301 304 303 304 303 301
299 299 299 299 299 299 300 300 300 300 300 300 301 301 302 302 301 296 300 302 302 295 294 288 289 295 304 298 298 305 302 304 302 300 297 294 296 294 287 294 296 297 300 299 302 303 302 302 302 302 302 300 297 296
299 299 299 299 299 299 299 299 300 300 300 300 301 302 302 299 293 299 304 304 303 296 289 291 289 289 301 298 299 299 300 294 302 293 293 294 291 288 291 292 291 293 293 294 297 299 301 299 299 298 297 294 291 291
298 298 299 299 299 299 299 299 299 300 300 300 300 295 293 298 300 302 301 297 294 292 291 287 296 291 296 295 296 296 297 294 291 296 300 291 290 295 295 292 292 293 294 296 294 295 296 296 295 293 291 291 290 290
298 298 298 298 298 299 299 299 299 300 300 298 293 293 299 302 298 296 292 291 293 288 293 294 295 292 298 294 293 298 293 296 289 296 293 290 289 292 294 291 293 295 297 297 296 296 296 293 290 289 289 289 289 290
298 298 298 298 298 299 299 299 299 299 298 298 296 298 298 295 291 287 288 291 291 289 296 294 297 297 298 301 294 295 292 293 287 297 288 287 291 294 294 291 293 297 297 296 296 295 293 291 290 289 289 289 289 290
297 297 297 298 298 299 299 299 299 299 299 299 294 290 289 290 283 282 282 287 287 290 293 294 292 298 301 300 295 292 288 287 296 290 287 290 295 296 294 294 297 300 299 296 295 294 292 291 290 289 288 289 289 289
297 297 298 298 298 298 299 299 299 299 296 291 287 282 285 285 287 290 290 291 295 295 295 292 293 293 298 294 295 288 291 291 288 287 287 292 295 293 295 298 299 298 299 296 294 293 291 290 288 288 288 289 288 287
298 298 298 298 299 299 299 299 299 300 295 288 289 281 285 290 292 296 298 294 295 296 294 291 293 294 294 291 294 289 288 286 289 287 291 295 293 293 297 298 298 299 299 297 295 292 291 290 289 288 288 288 288 287
298 298 298 299 299 299 298 299 299 297 293 290 288 286 290 289 289 294 294 293 296 294 294 294 290 290 290 292 288 286 286 285 289 292 295 293 293 299 299 300 300 299 300 299 295 295 292 290 289 289 289 288 287 287
297 295 298 297 297 297 297 297 295 290 289 287 287 291 290 290 289 290 293 293 297 292 288 290 285 286 293 288 286 291 289 291 296 295 295 293 296 299 301 300 300 300 299 300 298 297 296 295 293 291 289 289 289 288
296 299 298 297 298 297 297 296 292 288 283 288 285 288 291 292 291 291 293 294 293 291 291 288 291 287 286 284 287 293 296 297 298 297 293 295 301 301 301 300 301 300 300 300 299 299 300 299 297 295 294 294 293 292
298 298 298 297 297 295 291 290 292 285 287 288 289 292 292 292 294 294 294 295 295 295 292 291 287 286 288 292 292 295 295 295 294 296 295 296 302 301 301 301 302 301 300 300 300 299 299 299 299 298 297 297 295 295
297 297 297 297 297 290 287 289 296 289 286 289 291 290 291 291 293 294 294 294 293 291 288 287 288 291 292 294 296 295 295 296 294 293 294 297 299 303 302 302 302 302 300 300 300 292 300 299 299 298 297 296 296 295
296 298 297 297 293 290 290 289 288 290 290 288 292 291 289 291 291 291 291 293 289 289 288 292 293 295 297 297 297 298 297 296 294 294 295 296 299 300 304 305 304 304 302 299 299 297 296 298 299 299 299 298 298 297
297 297 296 296 291 290 288 292 289 291 289 289 290 290 288 287 288 289 293 289 289 291 293 293 294 295 295 295 296 298 298 298 297 297 295 297 302 302 302 304 303 302 301 300 299 298 298 299 299 299 298 297 297 297
295 295 293 292 286 286 285 293 286 288 283 286 288 286 286 287 290 293 288 291 292 295 295 295 296 297 296 297 297 297 298 297 296 297 298 301 303 305 304 304 305 304 301 301 301 299 297 292 296 299 299 300 299 298
294 291 286 286 285 283 289 286 289 286 286 285 285 283 285 287 291 288 286 289 293 295 295 296 296 295 295 296 295 296 297 298 297 298 300 303 303 304 305 305 305 306 305 304 302 300 300 299 296 300 299 299 298 298
285 284 285 281 286 284 282 282 284 284 281 283 283 284 286 291 285 285 286 290 293 294 295 296 296 295 293 295 296 297 299 298 297 296 301 304 306 305 303 305 305 306 306 304 303 302 301 302 301 301 300 299 298 298
280 285 282 283 284 282 283 281 283 284 284 283 285 288 290 287 283 284 289 295 299 300 299 298 298 296 295 296 296 297 300 301 299 299 303 307 306 306 302 303 302 303 306 306 304 303 303 303 302 301 299 297 290 298
279 282 286 289 287 287 286 287 288 286 284 283 286 287 287 283 284 291 299 302 305 306 304 304 301 298 297 297 299 302 304 303 302 305 307 308 309 309 306 305 304 305 307 307 306 305 304 303 303 302 302 302 303 302
284 286 282 286 286 287 283 284 284 284 286 289 289 286 284 285 289 299 300 306 309 311 310 306 303 302 302 302 302 303 304 306 307 309 310 309 310 312 311 310 309 291 307 309 308 307 306 306 305 305 304 303 303 305
285 289 287 284 285 286 285 285 286 289 293 294 290 289 288 295 298 298 300 303 308 309 308 308 308 310 310 310 309 308 308 307 305 304 304 305 308 308 309 309 308 308 308 308 286 296 306 306 306 306 306 306 306 306
287 291 287 286 284 284 288 290 289 293 295 295 294 293 294 298 299 299 297 299 303 305 307 309 310 310 307 305 305 306 308 308 308 307 305 306 308 310 310 310 310 309 309 308 308 307 289 302 299 306 305 306 306 306
291 289 287 287 287 289 290 291 291 291 291 290 291 290 291 292 294 296 295 299 304 304 305 305 306 308 308 307 307 306 305 309 311 311 311 311 310 310 312 312 312 311 310 309 307 307 307 305 306 305 305 305 305 303
290 288 287 286 288 291 292 290 290 290 290 290 289 290 290 289 287 290 295 299 301 300 295 301 303 304 308 308 308 306 295 306 305 307 311 310 313 313 314 313 312 311 310 310 309 307 307 306 305 305 304 304 304 305
292 292 292 288 288 289 292 291 289 288 289 289 291 291 289 288 285 290 297 300 301 301 302 303 304 305 306 306 305 303 299 300 290 286 287 286 286 294 309 311 312 312 310 308 309 306 306 307 306 305 305 305 305 305
Wind_Speed
10 10 10 10 10 10 10 10 11 11 12 12 13 13 13 12 12 9 10 10 6 8 14 24 27 22 16 15 15 11 7 10 9 8 10 13 12 8 9 18 14 16 13 8 11 11 16 10 13 11 13 25 23 22
11 11 11 11 11 11 10 11 11 11 11 12 12 13 13 13 12 11 10 11 4 5 13 23 25 26 29 26 15 7 11 13 4 6 5 5 9 8 17 17 17 17 12 14 19 17 21 16 20 19 16 18 20 21
11 12 12 12 11 10 11 11 11 12 12 12 13 14 14 14 13 11 11 11 10 11 14 18 19 19 19 21 19 17 15 19 18 12 9 8 13 11 14 13 20 20 21 17 22 25 23 17 19 27 21 18 16 17
12 12 12 12 11 11 11 11 12 12 13 13 15 15 15 15 14 13 11 10 8 4 9 10 9 13 11 13 18 16 20 17 8 6 8 6 4 11 13 20 21 18 22 23 27 25 21 20 19 23 19 15 19 19
12 12 12 11 11 12 11 12 13 12 13 15 17 17 15 14 16 13 12 12 12 9 12 16 22 32 20 17 23 20 16 16 8 7 6 6 5 10 14 17 19 17 22 17 19 25 21 26 22 23 23 15 18 17
12 13 12 11 11 12 12 14 13 14 15 17 18 18 17 15 12 8 7 11 10 5 3 5 7 24 24 21 21 19 12 13 11 5 4 4 8 5 7 12 25 23 20 21 19 22 21 26 20 18 17 17 15 17
10 10 11 10 11 13 14 15 16 15 18 18 19 20 20 17 10 5 7 3 11 5 6 8 8 2 3 5 8 11 16 8 8 6 5 4 4 7 4 17 30 27 27 16 21 15 14 17 13 16 14 13 16 16
12 12 12 12 13 14 15 15 16 17 19 21 21 22 21 19 17 14 15 22 16 7 6 6 8 14 4 7 9 0 3 6 6 6 4 7 6 4 7 12 18 21 22 18 13 15 13 11 12 13 14 15 16 16
13 13 13 13 13 14 14 16 17 18 19 20 23 25 19 8 5 6 9 5 7 9 5 6 9 9 4 5 4 7 4 5 4 5 6 4 4 6 9 13 13 14 11 13 14 13 10 11 13 14 15 14 14 15
13 14 15 14 13 14 15 15 16 17 19 22 17 5 5 3 10 13 7 5 7 5 6 5 7 12 13 11 5 4 4 6 5 9 4 5 1 5 12 11 12 12 13 12 12 12 14 14 14 14 13 12 12 13
13 13 13 14 14 14 14 15 16 18 20 8 3 5 6 10 5 5 6 7 7 5 7 8 14 13 7 7 6 4 4 5 5 2 6 4 2 6 7 8 10 13 8 10 9 9 11 10 11 12 12 12 12 14
14 14 14 14 14 14 14 14 13 10 5 8 9 13 6 4 6 6 6 5 6 5 4 3 4 2 3 3 4 4 5 5 6 4 3 2 1 7 7 10 10 10 4 9 9 11 11 10 10 9 9 11 12 12
14 14 15 15 14 14 12 12 11 12 13 8 4 5 4 6 6 7 10 6 3 6 5 7 6 3 2 4 4 3 5 6 9 3 2 2 11 11 6 8 11 2 5 9 10 10 10 10 9 10 10 11 12 11
15 16 16 15 15 14 13 12 11 9 5 5 5 5 6 7 7 3 4 1 1 3 2 6 8 5 5 4 3 3 3 5 4 1 6 8 18 13 7 5 9 6 7 9 9 9 10 10 9 10 11 11 12 14
16 17 17 16 17 16 15 13 8 5 4 5 4 6 8 9 4 3 0 6 3 4 4 5 8 8 5 4 1 3 4 5 4 6 5 12 16 11 3 6 6 7 7 9 7 7 8 9 8 9 10 10 12 13
16 15 13 17 12 10 10 9 7 3 3 5 7 10 9 9 7 3 3 9 3 4 7 8 6 5 5 3 3 6 5 3 4 5 10 14 13 4 4 6 7 7 7 8 5 7 7 8 8 7 8 9 11 11
8 5 3 5 6 6 5 5 3 5 6 7 7 9 10 11 10 8 6 5 4 4 8 4 5 3 3 3 2 4 3 5 7 9 11 13 13 7 6 6 5 6 6 6 7 7 6 7 6 7 8 8 8 10
7 8 7 6 6 4 3 4 4 5 8 9 11 13 10 9 10 10 8 7 6 6 6 6 6 8 7 8 7 3 2 4 8 8 10 13 12 3 5 5 5 6 6 6 5 4 5 5 6 6 7 8 7 8
8 5 4 7 4 2 3 4 5 6 10 11 12 11 10 9 9 10 9 8 7 7 5 5 7 7 8 7 7 7 6 8 7 7 7 13 12 4 4 1 4 6 6 7 7 6 6 6 6 6 6 6 6 6
10 11 10 9 9 3 4 4 3 6 7 10 8 10 10 9 8 9 10 9 8 8 8 9 11 10 11 10 9 8 8 7 8 5 7 10 7 6 2 6 6 2 4 6 5 4 6 7 7 8 8 8 9 9
6 8 10 8 4 4 3 4 4 7 8 7 9 9 6 7 9 10 11 10 11 12 12 11 11 12 13 11 11 9 9 8 7 5 5 8 8 7 3 3 3 1 2 5 5 5 4 7 7 8 8 8 9 10
3 8 3 8 5 4 6 8 6 7 7 9 13 11 10 11 11 12 11 12 13 12 12 12 12 12 12 14 11 10 10 9 8 4 2 7 7 8 3 3 3 3 4 5 6 6 7 7 6 8 9 9 10 9
3 3 3 5 4 5 7 8 7 6 6 6 9 12 10 10 11 10 13 13 14 13 13 13 15 16 15 14 13 13 11 9 7 4 3 7 7 7 3 4 3 3 5 6 5 7 7 3 3 6 6 7 8 8
2 4 4 5 8 6 4 6 5 5 5 6 7 12 15 11 10 10 12 12 12 11 12 14 11 11 11 13 11 10 8 8 8 5 7 6 6 5 6 5 4 4 5 6 7 5 5 6 1 6 7 8 9 9
4 6 5 8 6 6 7 5 6 6 7 11 7 6 5 3 6 11 14 10 11 13 12 11 12 12 10 9 8 8 10 8 7 7 8 7 7 5 5 5 5 5 5 6 5 6 6 5 6 6 8 8 9 10
7 7 9 7 6 5 5 5 5 7 4 5 7 3 2 3 5 7 3 5 5 7 7 10 10 10 10 9 8 7 9 8 8 10 9 9 8 8 7 7 7 6 6 6 6 7 7 7 7 8 9 8 2 7
7 8 9 8 5 4 5 6 8 6 5 6 4 4 5 6 5 3 4 4 1 1 5 2 6 8 8 9 6 7 9 10 13 7 6 8 7 6 7 7 8 7 7 8 7 7 7 7 7 7 7 6 4 7
8 6 9 10 6 6 6 5 5 6 6 4 4 5 3 3 2 2 3 5 4 2 1 2 7 8 7 9 8 8 7 9 8 8 5 6 7 8 10 6 7 10 7 8 8 7 7 7 7 7 7 7 6 5
8 7 8 15 9 6 6 7 7 6 6 3 4 3 3 4 4 6 7 10 7 3 4 5 4 4 5 4 5 7 8 9 11 12 15 9 8 8 9 5 11 10 9 9 8 2 7 7 9 8 7 6 6 5
13 5 7 7 5 7 6 8 6 6 3 2 2 2 4 3 7 7 8 8 8 4 5 3 3 3 6 8 6 5 7 8 8 9 10 10 8 7 5 5 9 10 9 10 10 9 5 6 5 6 6 6 6 6
7 5 5 5 5 3 3 4 4 5 3 2 1 1 1 4 4 4 8 8 5 5 5 6 8 8 7 5 3 2 5 4 10 2 2 6 6 7 8 6 7 8 7 8 9 10 11 10 9 10 10 10 8 6
6 6 3 4 4 5 4 1 2 3 4 3 3 2 1 2 5 7 9 9 8 7 6 6 6 7 8 7 7 7 10 7 9 11 13 4 7 6 5 5 7 7 7 8 6 6 11 13 8 7 8 11 11 12
5 9 5 2 3 3 1 2 3 3 3 3 3 3 2 3 4 3 4 8 5 5 7 9 9 10 11 12 12 10 10 10 9 10 13 14 14 13 5 4 4 5 7 6 6 1 5 7 7 9 11 12 10 9
Wind_Direction
298 298 298 298 298 299 301 307 308 312 314 314 317 319 317 317 317 306 294 295 267 274 274 275 273 274 272 262 268 301 328 216 229 245 255 267 288 296 285 278 289 290 281 244 233 254 265 40 332 240 332 320 315 306
296 295 294 295 295 295 299 301 302 304 305 309 312 312 311 310 307 305 278 274 259 246 281 295 288 280 274 271 269 262 254 292 318 286 288 348 299 306 291 285 288 280 271 283 282 282 297 278 241 260 262 304 316 308
292 292 291 288 288 292 293 293 296 300 301 304 306 306 307 305 306 298 294 294 279 281 280 253 253 253 255 231 238 249 249 246 250 281 309 296 280 282 277 281 298 290 292 295 298 286 285 297 299 297 306 321 295 298
285 285 285 285 283 288 288 290 292 296 300 303 303 301 303 308 311 309 284 285 274 274 281 289 283 266 301 272 229 217 243 271 288 264 252 236 237 264 276 292 294 295 303 288 281 283 297 308 296 301 300 298 309 302
287 285 287 279 282 291 287 291 292 300 301 298 297 297 302 306 308 294 273 258 252 232 290 305 314 284 264 242 241 253 234 235 242 246 229 246 248 278 271 282 271 275 278 280 287 297 306 297 297 301 303 306 301 315
283 286 284 275 280 286 288 289 289 288 290 292 293 295 296 293 298 309 276 38 45 7 309 277 276 279 281 267 254 248 232 220 222 216 222 230 239 243 271 265 272 278 284 288 293 287 281 290 287 310 329 329 318 320
303 303 290 277 284 289 288 290 291 288 288 293 294 292 290 289 281 238 295 347 311 328 261 280 300 318 242 207 223 226 226 206 209 221 213 234 235 215 243 262 292 296 288 320 320 322 318 292 295 304 308 313 330 312
289 290 288 285 286 287 290 294 296 296 295 297 297 292 287 283 273 258 248 250 257 257 256 274 277 270 229 238 261 210 246 221 206 235 208 227 231 213 255 279 323 322 324 324 318 315 289 286 289 308 335 337 321 314
281 281 282 284 286 289 291 293 294 296 297 299 295 291 280 242 228 225 342 302 216 239 241 241 255 293 300 292 299 296 291 263 228 212 221 220 185 224 309 302 311 325 326 311 309 306 297 309 336 346 340 333 318 309
281 281 282 282 284 289 293 297 300 302 300 296 292 273 223 60 309 286 202 217 183 171 227 252 244 265 280 307 319 260 230 236 240 217 152 193 163 301 329 313 303 307 302 315 344 355 352 348 345 336 331 324 313 308
282 286 288 288 288 290 294 298 302 302 283 263 281 288 6 343 273 226 243 210 177 214 206 235 240 248 263 256 282 262 277 260 255 199 195 131 143 327 318 304 289 289 330 358 354 358 8 355 339 335 332 328 325 329
280 283 284 287 290 293 292 296 300 286 289 322 303 297 276 258 239 237 251 226 206 250 180 230 243 232 260 194 245 290 268 311 265 9 267 87 334 298 331 324 299 293 349 14 13 11 11 7 1 346 339 340 343 337
283 284 285 286 286 287 287 288 294 296 285 276 215 235 230 233 242 230 230 206 337 342 343 328 303 218 219 209 231 246 250 247 315 245 116 61 4 350 336 309 290 306 49 41 29 25 22 23 13 10 359 351 345 349
280 282 283 282 280 280 281 283 288 289 271 247 226 245 255 220 233 290 345 198 198 252 5 326 311 286 220 236 257 261 291 293 254 282 36 359 353 333 326 288 291 16 40 51 45 33 31 32 21 14 5 355 0 9
279 279 282 275 265 265 271 273 262 236 261 268 248 243 238 269 271 199 154 272 209 250 299 283 265 247 283 266 223 283 248 259 23 10 350 353 342 324 314 283 16 17 29 70 54 47 37 36 32 24 10 2 10 9
280 286 259 255 261 264 265 251 228 238 274 261 239 255 272 270 279 81 277 279 345 340 300 254 255 239 222 228 229 218 291 352 12 7 3 343 324 335 287 49 27 19 24 74 58 85 68 52 45 38 27 21 15 10
281 248 196 236 247 243 242 255 178 209 225 231 239 246 265 282 293 291 281 286 319 301 289 306 274 294 268 228 316 354 17 360 14 15 1 332 330 297 42 43 28 24 30 60 73 73 78 114 100 63 45 35 30 25
242 256 213 209 240 226 247 224 234 227 233 250 260 268 273 277 276 283 286 286 275 263 270 259 332 292 291 304 334 90 149 340 40 37 352 328 308 28 56 17 18 34 46 53 77 88 53 75 71 64 55 54 40 46
282 309 236 221 223 254 265 219 242 256 242 256 261 260 260 264 267 270 274 272 268 277 280 263 246 249 250 256 292 353 13 6 352 29 344 316 309 53 66 8 13 35 43 41 39 59 84 57 49 54 81 91 69 58
266 257 240 211 169 192 231 241 233 266 282 292 272 256 256 254 257 259 263 261 248 236 239 238 252 270 294 321 335 334 328 330 339 12 324 323 334 306 107 300 61 104 113 135 107 309 95 87 85 63 50 52 56 41
240 228 200 188 190 229 262 273 248 253 276 263 270 266 252 265 257 252 248 245 248 245 247 246 249 256 273 290 299 303 301 305 306 308 295 313 315 305 244 149 204 83 71 82 101 107 74 63 62 57 53 51 76 83
223 167 212 188 222 210 243 226 243 270 269 263 278 278 264 258 255 251 250 244 246 247 249 251 251 257 260 262 269 271 282 289 282 274 247 291 273 268 183 190 192 129 89 75 76 81 76 60 58 69 81 90 66 54
194 209 227 205 227 243 253 229 224 223 245 265 271 261 259 262 261 259 255 253 256 257 254 249 249 250 258 267 274 271 268 267 263 248 273 262 263 262 212 168 181 124 104 93 90 79 82 112 95 83 85 73 78 83
166 225 208 222 207 260 220 216 221 255 272 266 263 271 270 271 272 260 260 257 263 254 242 244 247 243 238 238 247 246 235 220 235 212 229 235 241 218 273 169 164 127 103 113 106 132 110 92 164 83 81 80 75 74
231 215 216 233 240 238 243 219 225 231 231 246 254 238 252 283 262 260 259 254 236 230 233 233 225 224 230 234 224 213 207 216 182 215 228 222 217 202 243 223 152 138 144 133 142 127 131 138 101 94 84 83 87 85
221 220 200 221 224 209 227 247 230 242 235 219 232 228 249 239 251 247 250 315 278 260 226 199 193 202 201 217 209 194 174 185 188 223 206 207 194 209 207 190 169 165 170 152 148 143 145 128 121 109 111 105 11 98
243 244 213 218 245 273 270 267 271 268 257 244 212 212 210 225 229 266 169 215 267 248 275 203 147 165 184 194 181 183 174 169 213 215 208 196 176 207 230 199 183 162 174 156 159 157 149 143 148 135 127 125 101 97
240 265 246 237 225 204 237 244 256 257 234 225 249 218 221 252 29 66 44 10 21 63 252 148 152 159 183 153 166 193 176 191 184 184 189 173 195 205 203 201 172 136 182 170 161 157 160 157 158 150 143 132 131 116
239 252 266 260 246 226 227 219 219 235 240 245 258 319 17 26 30 8 342 331 322 22 133 147 145 139 126 165 176 196 176 179 180 178 187 185 172 202 227 174 145 166 182 162 72 23 164 169 164 163 164 151 137 143
274 281 260 256 232 224 218 201 234 242 304 286 6 335 314 325 46 12 348 325 296 5 27 47 64 138 158 150 169 168 163 174 174 175 177 182 190 208 181 149 178 177 182 172 176 152 100 162 142 179 197 184 170 167
283 282 257 244 262 257 242 238 232 227 187 204 179 256 355 4 1 343 343 326 341 41 38 45 46 22 49 81 86 106 88 71 99 198 99 179 184 188 182 165 180 191 181 175 185 180 180 206 196 206 204 216 191 196
262 244 282 279 295 313 321 1 150 137 139 155 121 107 112 46 25 360 347 352 45 52 42 61 68 49 55 71 78 64 30 34 10 3 17 163 196 105 151 170 181 168 166 150 141 241 218 205 211 233 241 230 226 208
285 280 284 288 290 310 258 104 40 89 66 64 75 73 52 50 62 337 310 354 5 45 69 77 78 80 88 91 92 88 80 74 65 42 42 41 35 13 30 79 114 163 180 168 192 91 291 235 217 248 286 264 236 244